Hayward, WI

5:39 AM CDT on March 28, 2017 (GMT -0500)
Sawyer County

Weather History for KHYR - November, 2010

Change the Weather History Date:

Thursday, November 18, 2010

  Actual Average Record
Temperature  
Mean Temperature 25 °F -  
Max Temperature 28 °F 36 °F 59 °F (2015)
Min Temperature 23 °F 20 °F 6 °F (2014)
Degree Days  
Heating Degree Days 40    
Moisture  
Dew Point 16 °F    
Average Humidity 69    
Maximum Humidity 80    
Minimum Humidity 61    
Precipitation  
Precipitation 0.00 in - - ()
Sea Level Pressure  
Sea Level Pressure 30.30 in    
Wind  
Wind Speed 3 mph (South)    
Max Wind Speed 12 mph    
Max Gust Speed 25 mph    
Visibility 10 miles    
Events Snow    
Averages and records for this station are not official NWS values.
T = Trace of Precipitation, MM = Missing Value Source: NWS Daily Summary

Daily Weather History Graph

Daily Weather History Graph

Search for Another Location

Airport or City:

Trip Planner

Search our weather history database for the weather conditions in past years. The results will help you decide how hot, cold, wet, or windy it might be!

Date:

Astronomy

Nov. 18, 2010 Rise Set
Actual Time 7:10 AM CST 4:30 PM CST
Civil Twilight 6:37 AM CST 5:03 PM CST
Nautical Twilight 6:01 AM CST 5:40 PM CST
Astronomical Twilight 5:25 AM CST 6:15 PM CST
Moon 2:35 PM CST (11/18) 4:01 AM CST (11/18)
Length of Visible Light 10h 25m
Length of Day
9h 20m
Waxing Gibbous, 91% of the Moon is Illuminated
Nov 18
Waxing Gibbous
Nov 21
Full
Nov 28
Last Quarter
Dec 5
New
Dec 13
First Quarter

Hourly Weather History & Observations

Time (CST) Temp. Windchill Dew Point Humidity Pressure Visibility Wind Dir Wind Speed Gust Speed Precip Events Conditions
12:53 AM 26.1 °F 20.5 °F 18.0 °F 71% 30.32 in 10.0 mi Variable 4.6 mph - N/A   Overcast
1:53 AM 25.0 °F - 16.0 °F 69% 30.33 in 10.0 mi Calm Calm - N/A   Overcast
2:53 AM 24.1 °F 19.7 °F 18.0 °F 77% 30.35 in 9.0 mi Variable 3.5 mph - 0.00 in   Overcast
3:53 AM 24.1 °F 19.7 °F 18.0 °F 77% 30.36 in 9.0 mi West 3.5 mph - 0.00 in Snow Light Snow
4:46 AM 23.0 °F 18.4 °F 17.6 °F 80% 30.30 in 7.0 mi Variable 3.5 mph - 0.00 in Snow Light Snow
4:53 AM 23.0 °F 18.4 °F 16.0 °F 74% 30.36 in 8.0 mi Variable 3.5 mph - 0.00 in Snow Light Snow
5:18 AM 23.0 °F 18.4 °F 15.8 °F 74% 30.30 in 10.0 mi Variable 3.5 mph - 0.00 in   Overcast
5:53 AM 23.0 °F 15.8 °F 15.1 °F 72% 30.37 in 9.0 mi NW 5.8 mph - 0.00 in Snow Light Snow
6:53 AM 23.0 °F - 15.1 °F 72% 30.37 in 10.0 mi Calm Calm - 0.00 in   Overcast
7:53 AM 23.0 °F 18.4 °F 15.1 °F 72% 30.38 in 10.0 mi Variable 3.5 mph - N/A   Overcast
8:53 AM 23.0 °F 18.4 °F 15.1 °F 72% 30.39 in 10.0 mi Variable 3.5 mph - N/A   Overcast
9:35 AM 24.8 °F - 15.8 °F 69% 30.32 in 10.0 mi Calm Calm - N/A   Overcast
10:05 AM 24.8 °F 20.5 °F 14.0 °F 64% 30.33 in 10.0 mi WNW 3.5 mph - N/A   Overcast
10:53 AM 25.0 °F - 15.1 °F 66% 30.38 in 10.0 mi Calm Calm - N/A   Overcast
11:53 AM 25.0 °F - 15.1 °F 66% 30.37 in 10.0 mi Calm Calm - N/A   Overcast
12:53 PM 25.0 °F - 14.0 °F 63% 30.35 in 10.0 mi Calm Calm - N/A   Overcast
1:53 PM 26.1 °F - 15.1 °F 63% 30.32 in 10.0 mi Calm Calm - N/A   Overcast
2:53 PM 26.1 °F 19.4 °F 16.0 °F 66% 30.31 in 10.0 mi SSW 5.8 mph - N/A   Overcast
3:38 PM 26.6 °F - 15.8 °F 64% 30.25 in 10.0 mi Calm Calm - N/A   Overcast
3:53 PM 27.0 °F - 15.1 °F 61% 30.30 in 10.0 mi Calm Calm - N/A   Overcast
4:53 PM 26.1 °F 21.9 °F 16.0 °F 66% 30.28 in 10.0 mi East 3.5 mph - N/A   Overcast
5:53 PM 26.1 °F 20.5 °F 16.0 °F 66% 30.25 in 10.0 mi SE 4.6 mph - N/A   Mostly Cloudy
6:53 PM 26.1 °F 17.6 °F 17.1 °F 69% 30.22 in 10.0 mi SSE 8.1 mph - N/A   Overcast
7:53 PM 27.0 °F 18.7 °F 18.0 °F 69% 30.21 in 10.0 mi SSE 8.1 mph - N/A   Overcast
8:53 PM 27.0 °F 19.5 °F 18.0 °F 69% 30.17 in 10.0 mi SSE 6.9 mph - N/A   Overcast
9:53 PM 27.0 °F 18.7 °F 18.0 °F 69% 30.15 in 10.0 mi SSE 8.1 mph - N/A   Overcast
10:53 PM 27.0 °F 16.7 °F 19.0 °F 72% 30.13 in 10.0 mi SSE 11.5 mph 17.3 mph N/A   Overcast
11:53 PM 28.0 °F 18.6 °F 19.9 °F 72% 30.09 in 10.0 mi SSE 10.4 mph 25.3 mph N/A   Mostly Cloudy